STARLINK-3776, 52288

Orbit data source: Space-Track

STARLINK-3776, 52288 is a payload satellite owned by SpaceX/Seattle (US) in LEO that was launched on Thu, 21 Apr 2022 UTC via an FALCON 9 launch vehicle from the Air Force Eastern Test Range (AFETR). Payload-class satellites include a variety of spacecraft equipped with specific instruments for various scientific and technological missions. These include communications satellites like Starlink; space stations such as the ISS; scientific satellites like the Hubble; Earth observation satellites from companies like Planet Labs, Umbra, and HawkEye 360; GPS; miniature CubeSats for education and research; and military/defense satellites.

Loading next visibility...
Identifier
52288, 2022-041AD
Orbit
LEO
Country
Flag of USUS
Related business
Manufacturer
SpaceX/Seattle
Mission
Operational Commercial Communications
Bus & Motor
STARLINK, Unknown motor
Mass
297 kg wet, ~275 kg dry
Launch date (UTC)
2022-04-21 (4 years ago)
Launch vehicle
FALCON 9
Launch site
Air Force Eastern Test Range (AFETR)
Object type
Payload
Rocket body
Debris
Shape & HBR
Box + 1 Pan, 10.1 m
Radar Cross Section
11.087 m², Large (>1 m²)

Expand to show TLE details & history
Last TLE update: 11 hours ago

TLE from 11 hours ago
0 STARLINK-3776
1 52288U 22041AD  26236.87865857 -.00000225  00000-0  44686-5 0  9990
2 52288  53.1608  55.8458 0001263  91.0529 269.0618 15.34376374240004
Epoch: 2026-08-24T21:05Z
TLE epoch observation values (Epoch: 2026-08-24T21:05:16.100Z)
Latitude
-0.00004°
Longitude
126.37465°
Altitude
463.689 km
Speed
7.636 km/s
True Right ascension
03h 43m 22s
True Declination
0° 00' 00"
Sunlit
Object was in daylight at epoch
Visualization orbit readout
Latitude
Unknown
Longitude
Unknown
Altitude
Unknown
Speed
Unknown
Apparent Right ascension
Unknown
Apparent Declination
Unknown
Sunlit
N/A
Visualization observer readout
Local Sidereal Time
23:02:00
Azimuth
Unknown
Elevation
Unknown
Doppler factor
Unknown
Orbital elements
Apogee altitude
463.894 km
Perigee altitude
462.166 km
Semi-major axis
6,841.167 km
Eccentricity
0.00013
Inclination
53.1608°
RAAN
55.8458°
Arg. of periapsis
91.0529°
True anomaly
269.04733°
Mean anomaly
269.0618°
Eccentric anomaly
269.05456°
Mean motion
3.83573 °/min
Orbital period
93.85 mins
BSTAR
0.0000044686
Loading maneuver chart data...
Computing Atmospheric mass density...

Documentation

Showing up to 5 results
|